Theta_e
326 328 330 333 334 332 330 332 333 334 335 336 337 338 338 338 338 337 337 336 336 336 336 336 333 334 334 336 338 338 338 337 334 334 335 335 339 339 339 335 331 334 338
325 329 330 331 334 334 329 329 330 333 335 336 336 335 336 336 335 334 335 335 336 336 336 335 333 332 333 334 335 333 334 334 331 329 330 333 335 338 338 336 337 338 336
325 332 330 332 332 333 331 334 330 334 335 335 334 333 332 332 331 331 331 331 331 331 331 331 330 329 331 331 329 326 325 327 325 325 326 329 333 336 336 335 337 338 338
323 329 333 332 334 333 334 337 335 333 332 331 330 330 329 328 328 327 327 327 327 327 327 326 325 326 326 326 328 329 327 327 327 328 330 332 333 332 332 334 336 337 333
323 328 330 330 330 331 331 331 329 330 330 328 328 327 326 325 324 324 323 323 322 322 322 321 321 322 322 323 326 329 328 329 330 331 333 334 334 334 334 332 332 334 336
324 327 328 328 328 329 329 329 328 327 326 326 325 324 323 322 321 321 320 320 319 318 318 318 318 318 318 320 322 329 328 328 329 329 330 330 331 333 331 330 330 332 333
322 323 325 326 326 326 327 326 326 325 324 323 322 321 321 320 319 318 317 317 316 315 315 315 315 314 314 315 318 320 324 324 323 323 323 324 324 326 325 325 326 328 329
321 321 322 323 323 323 323 323 322 322 321 320 319 319 318 317 316 316 315 314 313 312 311 310 311 311 310 310 313 314 315 317 319 319 317 318 319 321 320 320 320 322 324
319 320 319 320 320 320 320 320 318 318 317 316 315 315 314 313 312 312 312 311 310 309 308 306 306 305 305 305 307 306 306 307 310 310 311 313 314 317 317 316 317 317 318
317 318 318 318 317 315 315 315 313 312 312 311 311 309 308 307 306 306 306 307 307 306 304 303 300 297 297 298 298 299 298 299 300 301 303 306 311 313 313 313 314 314 315
312 315 315 314 313 312 311 310 309 308 307 305 304 302 301 300 300 300 301 302 302 302 301 299 295 294 294 295 295 295 296 295 295 295 296 303 308 310 310 310 311 311 312
307 309 311 310 309 308 308 307 306 305 302 298 297 297 297 296 296 296 295 294 293 293 293 292 292 293 293 293 293 294 293 293 293 293 295 301 306 308 308 309 310 310 311
307 306 303 306 305 306 306 304 301 299 296 296 296 296 295 294 293 293 292 292 292 292 292 292 292 292 292 292 291 291 291 291 291 292 295 301 304 308 311 312 313 315 315
305 306 303 302 303 303 301 297 297 296 295 295 294 294 294 293 292 292 292 292 291 291 291 291 290 290 290 290 291 290 290 291 291 292 294 299 302 306 308 310 310 311 310
303 303 303 300 299 298 298 296 295 295 294 294 293 293 292 292 292 291 291 291 290 290 290 289 289 289 289 289 289 289 289 291 291 291 292 296 299 304 305 305 305 304 305
304 302 301 299 298 297 296 295 294 294 293 292 292 292 291 291 291 290 290 290 289 289 288 288 288 288 288 288 288 288 289 289 289 290 290 292 294 297 299 299 299 299 300
303 303 300 298 297 296 296 294 293 292 291 291 291 291 291 290 290 290 289 288 288 288 287 287 287 287 288 288 287 287 288 288 288 288 288 289 289 289 293 294 295 295 296
302 302 299 297 295 295 294 293 292 291 290 290 290 290 289 289 289 289 288 288 287 287 287 287 287 287 287 287 287 286 287 287 287 287 287 287 287 287 287 290 289 289 292
303 302 299 296 295 294 293 292 291 290 289 289 289 289 288 288 288 288 287 286 286 286 286 286 286 286 285 286 286 286 286 286 287 287 287 286 286 286 286 286 286 286 287
302 302 300 296 295 293 292 291 289 289 288 288 288 288 287 287 286 286 286 285 285 285 285 285 285 284 284 285 285 285 286 286 286 286 286 285 286 285 285 285 285 286 285
298 298 297 295 293 292 291 289 288 288 288 287 287 287 287 286 286 286 286 285 285 285 285 284 284 283 284 284 285 285 285 286 286 286 285 285 285 285 285 285 284 284 284
296 296 295 295 293 292 291 290 288 288 287 287 286 286 286 285 285 285 285 284 284 284 283 283 283 283 283 283 283 283 283 284 286 285 284 284 284 284 284 284 284 283 283
295 295 294 293 293 291 290 289 288 287 286 285 285 285 285 285 285 285 284 284 283 283 282 282 282 282 282 282 282 282 282 283 281 284 284 283 283 284 283 283 283 282 282
295 294 293 293 292 291 290 289 289 287 286 286 286 285 285 285 284 284 283 283 282 282 282 282 281 282 282 281 282 282 282 282 282 282 283 283 283 282 282 282 282 282 282
295 293 292 291 291 290 290 289 288 287 287 287 285 285 284 284 284 283 283 282 282 281 281 281 281 281 281 281 281 281 281 281 281 281 281 281 281 281 281 281 281 282 282
294 292 291 290 290 290 289 289 288 287 287 286 285 284 283 283 283 282 282 282 281 281 281 281 281 281 281 281 280 280 280 280 280 280 279 279 280 280 280 281 281 281 281
Wind_Speed
2 5 8 4 8 12 13 14 15 14 14 16 18 20 18 20 20 21 20 18 18 18 21 20 18 18 17 18 20 20 19 21 22 21 19 17 16 15 15 17 18 17 17
3 2 5 3 9 11 17 18 18 14 16 19 20 19 20 19 20 18 18 19 20 21 22 21 19 17 18 18 19 19 19 19 20 20 20 21 18 17 15 14 15 16 17
7 11 6 2 10 12 14 20 22 21 20 20 20 21 18 18 19 19 17 17 17 17 18 18 19 19 17 18 18 18 18 18 18 18 18 19 20 19 17 15 15 14 13
8 14 11 11 15 15 4 21 33 29 26 21 19 18 16 17 18 18 16 18 18 18 18 18 19 20 19 19 18 18 17 17 17 17 19 20 20 18 18 18 18 18 13
8 11 11 13 15 16 15 22 22 20 18 19 16 16 16 16 18 18 18 18 19 18 17 18 19 20 19 17 17 17 17 17 18 18 21 21 20 18 19 18 18 17 18
12 12 10 12 12 15 14 18 21 18 18 18 17 16 16 16 18 17 18 18 18 17 17 18 19 19 17 15 15 16 16 16 16 17 19 21 22 19 18 16 15 17 16
13 12 11 14 15 17 17 19 20 19 18 17 17 17 17 16 17 17 18 16 17 17 17 18 18 17 17 13 12 13 12 11 12 13 14 15 19 17 18 16 14 15 15
12 13 14 14 16 16 17 18 19 17 18 17 17 17 18 16 17 16 16 16 16 17 16 16 17 17 16 12 9 9 9 9 8 9 10 11 16 15 16 16 16 15 12
12 13 14 13 12 14 16 17 18 16 18 18 18 17 17 17 16 16 16 16 15 16 15 16 15 15 14 12 7 7 7 6 6 7 7 9 14 13 13 14 14 14 14
14 14 17 17 16 17 17 15 16 16 16 17 18 17 17 17 16 16 16 16 15 16 15 15 13 11 11 11 8 7 7 5 6 5 6 10 13 12 12 12 12 12 12
17 16 16 17 18 19 20 19 16 15 15 15 15 15 13 13 14 14 14 15 15 15 15 14 11 10 10 9 8 8 6 7 7 7 8 13 13 11 11 12 12 12 12
22 20 19 19 19 21 20 19 19 16 14 14 14 13 13 12 12 10 11 11 11 11 11 11 10 9 8 10 9 7 8 8 8 8 10 13 13 11 12 11 12 12 12
26 23 22 20 20 19 17 15 13 14 14 14 13 12 12 12 11 11 11 11 10 11 10 10 9 9 9 9 10 10 9 9 10 10 11 14 14 15 15 14 14 14 14
31 29 25 23 21 18 15 14 14 15 15 15 14 12 10 12 12 12 10 10 9 10 9 10 10 10 11 10 9 10 10 10 9 9 11 15 16 15 14 14 15 15 15
33 31 29 27 23 20 18 18 17 16 15 15 14 13 11 12 12 11 10 10 9 9 9 9 10 10 10 9 8 9 9 11 11 11 12 16 17 16 15 15 15 15 14
35 34 30 29 26 24 22 20 19 18 17 16 15 14 12 11 11 10 10 9 9 9 8 8 9 10 11 9 7 9 8 10 11 12 12 12 15 17 15 15 15 16 15
37 38 34 30 29 26 23 22 20 19 18 17 17 15 12 11 11 10 9 9 8 8 7 8 8 8 9 8 6 7 6 8 10 11 10 9 9 9 14 16 16 16 16
37 40 36 34 31 29 27 24 22 20 19 18 16 15 13 12 11 10 9 9 8 6 5 7 7 8 10 9 5 5 6 7 8 9 10 9 9 9 9 14 15 18 18
40 41 39 34 32 30 27 26 24 23 20 18 17 15 14 13 11 9 9 9 8 6 6 8 9 9 13 11 6 5 6 6 7 7 8 7 8 9 11 12 14 17 17
38 39 38 35 34 32 30 27 24 22 20 18 17 16 14 13 12 10 10 8 6 5 8 8 9 11 14 11 6 8 5 5 8 8 8 7 7 10 13 16 20 20 17
34 38 41 40 37 37 36 33 27 25 22 20 17 15 14 13 12 10 8 7 5 5 8 8 7 8 13 11 4 5 9 7 6 3 6 2 7 14 13 23 22 19 20
36 40 43 44 43 41 39 34 27 29 24 21 19 17 15 13 11 9 7 6 5 5 6 7 7 5 9 15 6 3 3 1 4 6 3 1 9 14 21 22 20 22 22
36 43 43 43 45 43 40 36 27 28 23 21 19 18 16 12 10 8 7 6 5 4 5 6 6 6 7 8 14 7 3 2 6 4 6 6 15 12 25 26 22 25 21
33 33 40 45 46 43 43 38 37 29 24 23 24 18 15 12 10 9 7 5 5 4 4 4 5 6 5 8 6 10 6 2 0 4 5 10 9 27 22 21 30 23 22
29 35 36 38 41 40 41 38 35 26 23 25 22 19 16 14 12 11 7 5 3 2 3 3 3 5 6 7 7 4 3 1 4 4 4 5 18 10 22 28 21 24 22
23 26 31 36 36 40 38 35 32 28 25 27 24 22 19 16 14 11 7 5 2 1 1 2 3 4 4 3 3 3 3 2 2 2 3 7 15 12 24 18 25 22 23
Wind_Direction
195 184 183 189 214 192 177 163 155 154 145 133 119 106 100 93 89 83 83 88 90 88 84 80 77 75 72 66 63 70 82 78 73 68 66 68 72 70 69 67 65 62 59
114 93 181 179 202 193 188 170 153 144 135 117 111 108 92 90 86 84 80 78 74 76 75 75 72 73 70 68 68 78 83 81 75 69 65 62 58 62 62 66 66 58 56
83 60 91 174 219 190 192 185 160 141 125 115 97 91 92 90 87 85 84 85 84 81 78 76 75 72 70 69 77 82 84 84 78 74 70 63 59 54 53 53 55 53 51
87 73 111 88 83 128 303 106 119 110 105 99 93 90 95 91 90 87 86 82 81 81 79 76 72 72 67 69 75 84 90 89 84 78 72 66 63 53 50 48 46 45 46
111 97 96 100 81 67 80 83 87 94 97 102 104 101 95 94 93 90 86 82 80 78 76 74 70 69 67 74 80 90 93 93 89 85 80 69 67 62 58 50 44 42 42
131 110 114 100 97 89 84 89 101 106 113 112 110 107 102 98 93 89 85 82 79 76 71 69 67 67 67 78 85 91 92 92 92 86 85 75 53 55 55 52 50 44 40
137 124 103 118 104 114 107 104 102 110 115 115 115 110 104 96 91 90 86 81 81 77 70 69 67 66 64 82 91 97 96 90 85 85 78 71 51 45 45 41 40 38 36
140 138 117 105 115 119 113 112 116 119 117 115 111 106 103 99 94 91 90 85 77 74 70 69 68 66 64 74 91 98 94 85 80 77 72 63 46 40 39 36 34 34 28
145 145 145 139 117 114 115 122 122 122 118 119 114 108 105 102 96 92 88 82 78 75 70 69 67 68 67 67 84 86 76 68 63 61 55 44 36 36 36 35 32 30 28
168 163 153 154 148 136 129 128 125 126 126 120 115 116 115 110 101 95 91 81 78 74 70 69 68 72 72 71 80 91 74 70 63 63 47 31 32 32 29 27 24 20 21
181 178 171 164 160 153 145 138 134 129 127 125 137 141 131 126 118 109 95 86 80 76 71 69 73 74 67 73 72 70 64 56 48 46 36 33 30 32 32 30 27 25 21
185 182 179 175 171 171 164 162 157 153 149 143 136 135 133 129 125 118 104 99 93 85 81 76 75 71 68 62 62 57 47 44 36 37 33 34 32 29 31 33 35 30 29
193 187 185 182 184 183 176 175 169 158 153 144 141 139 138 129 119 112 108 102 97 86 81 75 69 64 62 63 52 48 45 41 39 37 39 39 43 42 44 46 54 54 48
191 194 189 190 191 189 188 174 165 162 160 156 151 144 144 133 128 121 115 101 94 85 78 70 66 58 56 51 56 39 33 48 55 57 61 50 50 54 51 53 51 47 44
194 193 192 189 193 191 186 178 174 171 166 161 154 149 155 143 137 128 115 106 94 81 76 69 64 57 50 49 47 45 39 59 67 74 73 57 55 59 55 49 43 37 32
199 194 191 193 194 192 188 182 176 173 170 164 158 157 157 150 140 128 117 104 96 84 72 67 60 53 44 41 49 52 59 76 81 79 81 77 66 59 48 38 35 28 23
200 197 193 193 193 193 189 183 178 172 168 165 164 159 161 157 144 133 123 113 97 91 75 67 63 50 45 37 48 48 84 97 93 72 76 75 66 55 43 36 31 24 16
200 200 194 193 190 191 190 183 180 176 170 168 163 162 160 155 146 137 132 119 104 99 83 64 49 41 26 27 48 35 105 110 106 75 80 66 50 34 20 22 12 4 2
205 200 196 194 191 190 187 182 179 175 173 170 164 163 162 158 147 145 138 126 116 103 82 59 39 29 13 17 31 28 98 109 107 90 75 54 36 22 13 1 350 346 347
208 205 199 195 192 188 183 179 175 172 172 170 167 167 162 155 153 150 139 128 109 89 68 52 36 29 15 9 38 77 83 128 114 91 55 57 42 14 1 359 347 345 345
200 199 198 193 190 186 182 175 175 174 172 171 170 167 165 162 156 153 136 121 108 71 59 47 34 28 22 26 48 81 58 132 152 58 21 27 8 0 355 346 345 346 345
191 195 195 196 192 191 188 182 181 179 178 175 170 166 166 161 152 147 136 121 94 76 69 52 47 45 37 39 47 54 21 39 272 284 293 327 335 340 342 345 346 346 343
190 192 191 189 191 191 187 187 179 174 171 170 172 168 164 161 156 156 147 133 117 96 80 59 51 52 52 49 47 58 38 5 335 307 240 304 322 328 335 341 344 340 344
199 191 189 189 190 188 193 185 184 175 167 185 178 171 162 161 162 162 159 148 135 108 83 64 50 48 44 41 46 43 53 59 342 313 308 313 325 324 328 336 335 340 341
190 188 189 186 185 187 191 189 183 178 180 179 172 169 166 164 169 169 168 157 130 92 78 76 56 40 35 32 32 18 31 281 245 227 291 315 320 315 324 326 329 334 338
185 184 183 182 181 189 186 187 183 183 178 171 170 169 168 166 166 170 172 167 153 101 72 46 33 23 22 21 4 339 328 302 292 242 271 304 308 309 316 324 330 333 334